Lamoni, IA

7:50 AM CDT on April 30, 2017 (GMT -0500)
Lamoni Municipal

Weather History for KLWD - October, 2011

Change the Weather History Date:

Sunday, October 23, 2011

  Actual Average Record
Temperature  
Mean Temperature 59 °F 50 °F  
Max Temperature 74 °F 61 °F 82 °F (1963)
Min Temperature 44 °F 40 °F 21 °F (1981)
Degree Days  
Heating Degree Days 6 15  
Month to date heating degree days 191 253  
Since 1 July heating degree days 354 353  
Cooling Degree Days 0 0  
Month to date cooling degree days 23 11  
Year to date cooling degree days 1144 944  
Growing Degree Days 9 (Base 50)    
Moisture  
Dew Point 43 °F    
Average Humidity 61    
Maximum Humidity 89    
Minimum Humidity 33    
Precipitation  
Precipitation 0.00 in 0.11 in 1.90 in (1977)
Month to date precipitation 0.07 2.09  
Year to date precipitation 29.07  
Sea Level Pressure  
Sea Level Pressure 29.96 in    
Wind  
Wind Speed 8 mph (SW)    
Max Wind Speed 17 mph    
Max Gust Speed 25 mph    
Visibility 9 miles    
Events      
T = Trace of Precipitation, MM = Missing Value Source: NWS Daily Summary

Daily Weather History Graph

Daily Weather History Graph

Search for Another Location

Airport or City:

Trip Planner

Search our weather history database for the weather conditions in past years. The results will help you decide how hot, cold, wet, or windy it might be!

Date:

Astronomy

Oct. 23, 2011 Rise Set
Actual Time 7:35 AM CDT 6:24 PM CDT
Civil Twilight 7:07 AM CDT 6:51 PM CDT
Nautical Twilight 6:35 AM CDT 7:23 PM CDT
Astronomical Twilight 6:03 AM CDT 7:55 PM CDT
Moon 3:42 AM CDT (10/23) 4:16 PM CDT (10/23)
Length of Visible Light 11h 44m
Length of Day
10h 48m
Waning Crescent, 14% of the Moon is Illuminated
Oct 23
Waning Crescent
Oct 26
New
Nov 2
First Quarter
Nov 10
Full
Nov 18
Last Quarter

Hourly Weather History & Observations

Time (CDT) Temp. Windchill Dew Point Humidity Pressure Visibility Wind Dir Wind Speed Gust Speed Precip Events Conditions
12:53 AM 52.0 °F - 45.0 °F 77% 30.03 in 10.0 mi SW 5.8 mph - N/A   Overcast
1:53 AM 53.1 °F - 45.0 °F 74% 30.02 in 10.0 mi SW 3.5 mph - N/A   Overcast
2:53 AM 53.1 °F - 45.0 °F 74% 30.01 in 10.0 mi Calm Calm - N/A   Overcast
3:53 AM 52.0 °F - 45.0 °F 77% 30.00 in 10.0 mi South 3.5 mph - N/A   Scattered Clouds
4:53 AM 53.1 °F - 44.1 °F 71% 29.98 in 10.0 mi SE 3.5 mph - N/A   Overcast
5:53 AM 50.0 °F - 44.1 °F 80% 29.99 in 10.0 mi South 3.5 mph - N/A   Clear
6:53 AM 46.0 °F 44.8 °F 43.0 °F 89% 29.99 in 8.0 mi SW 3.5 mph - N/A   Clear
7:53 AM 45.0 °F 40.6 °F 41.0 °F 86% 29.99 in 10.0 mi South 8.1 mph - N/A   Clear
8:53 AM 50.0 °F - 46.0 °F 86% 30.00 in 10.0 mi SSW 6.9 mph - N/A   Clear
9:53 AM 55.9 °F - 46.0 °F 69% 29.99 in 10.0 mi SW 10.4 mph - N/A   Clear
11:53 AM 68.0 °F - 44.1 °F 42% 29.97 in 9.0 mi SW 13.8 mph 21.9 mph N/A   Clear
12:53 PM 70.0 °F - 44.1 °F 39% 29.96 in 6.0 mi WSW 12.7 mph - N/A   Haze
1:53 PM 71.1 °F - 43.0 °F 36% 29.93 in 8.0 mi WSW 9.2 mph 21.9 mph N/A   Clear
2:53 PM 71.1 °F - 43.0 °F 36% 29.91 in 6.0 mi WSW 11.5 mph - N/A   Haze
3:53 PM 73.0 °F - 42.1 °F 33% 29.89 in 4.0 mi WSW 9.2 mph - N/A   Haze
4:53 PM 73.0 °F - 42.1 °F 33% 29.88 in 5.0 mi WSW 15.0 mph 21.9 mph N/A   Haze
5:53 PM 71.1 °F - 43.0 °F 36% 29.88 in 6.0 mi WSW 8.1 mph - N/A   Haze
6:53 PM 63.0 °F - 42.1 °F 46% 29.90 in 10.0 mi SW 5.8 mph - N/A   Clear
7:53 PM 59.0 °F - 43.0 °F 55% 29.91 in 10.0 mi SSW 9.2 mph - N/A   Clear
8:53 PM 61.0 °F - 44.1 °F 54% 29.91 in 10.0 mi SW 11.5 mph - N/A   Scattered Clouds
9:53 PM 60.1 °F - 43.0 °F 53% 29.96 in 10.0 mi WNW 6.9 mph - N/A   Clear
10:53 PM 59.0 °F - 39.9 °F 49% 29.98 in 10.0 mi NNW 10.4 mph - N/A   Clear
11:53 PM 55.9 °F - 39.9 °F 55% 30.00 in 10.0 mi NNW 9.2 mph - N/A   Clear